When you browse on this site, cookies collect data to enhance your experience and personalize the content and advertising you see.
Visit our Privacy Policy to learn more. By continuing to use the site, you agree to this use of cookies and data.
  • In Portugal
  • List of Countries
  • For 7 days
  • Water Temperature
  • Weather Map
  • Weather Widgets
  • user-avatar
    Login

    Hourly Weather Staryy Sig

    Today, 21 January, Tuesday

    Time Temperature Precipitation Wind Pressure Humidity
    00:00 -1°C° 0 mm 5 mps 743 mmHg 89%
    01:00 -1°C° 0 mm 5 mps 743 mmHg 90%
    02:00 -1°C° 0 mm 5 mps 742 mmHg 91%
    03:00 -1°C° 0.2 mm 5 mps 741 mmHg 91%
    04:00 -1°C° 0.2 mm 6 mps 740 mmHg 90%
    05:00 -1°C° 0.2 mm 6 mps 739 mmHg 89%
    06:00 -1°C° 0.1 mm 6 mps 738 mmHg 90%
    07:00 -1°C° 0.1 mm 6 mps 738 mmHg 90%
    08:00 +1°C° 0.1 mm 6 mps 737 mmHg 91%
    09:00 +1°C° 0 mm 6 mps 737 mmHg 90%
    10:00 +2°C° 0 mm 6 mps 736 mmHg 90%
    11:00 +2°C° 0 mm 6 mps 736 mmHg 89%
    12:00 +2°C° 0.3 mm 5 mps 735 mmHg 90%
    13:00 +3°C° 0.3 mm 5 mps 734 mmHg 91%
    14:00 +3°C° 0.3 mm 5 mps 734 mmHg 92%
    15:00 +3°C° 1.4 mm 5 mps 733 mmHg 93%
    16:00 +3°C° 1.4 mm 5 mps 732 mmHg 93%
    17:00 +3°C° 1.4 mm 5 mps 731 mmHg 94%
    18:00 +2°C° 0.6 mm 6 mps 731 mmHg 87%
    19:00 +1°C° 0.6 mm 6 mps 732 mmHg 80%
    20:00 -1°C° 0.6 mm 7 mps 732 mmHg 73%
    21:00 -1°C° 0 mm 7 mps 732 mmHg 72%
    22:00 -2°C° 0 mm 7 mps 733 mmHg 71%
    23:00 -2°C° 0 mm 7 mps 733 mmHg 70%

    Tomorrow, 22 January, Wednesday

    Time Temperature Precipitation Wind Pressure Humidity
    00:00 -3°C° 0 mm 7 mps 733 mmHg 74%
    01:00 -3°C° 0 mm 6 mps 733 mmHg 77%
    02:00 -3°C° 0 mm 6 mps 732 mmHg 80%
    03:00 -3°C° 0.1 mm 6 mps 732 mmHg 81%
    04:00 -3°C° 0.1 mm 6 mps 731 mmHg 82%
    05:00 -3°C° 0.1 mm 6 mps 730 mmHg 82%
    06:00 -4°C° 0.2 mm 6 mps 730 mmHg 85%
    07:00 -4°C° 0.2 mm 6 mps 729 mmHg 87%
    08:00 -4°C° 0.2 mm 5 mps 729 mmHg 89%
    09:00 -4°C° 0.4 mm 6 mps 729 mmHg 85%
    10:00 -3°C° 0.4 mm 6 mps 728 mmHg 80%
    11:00 -3°C° 0.4 mm 6 mps 728 mmHg 76%
    12:00 -3°C° 0.1 mm 6 mps 728 mmHg 73%
    13:00 -2°C° 0.1 mm 5 mps 728 mmHg 70%
    14:00 -2°C° 0.1 mm 5 mps 728 mmHg 68%
    15:00 -4°C° 0 mm 5 mps 729 mmHg 71%
    16:00 -4°C° 0 mm 5 mps 729 mmHg 74%
    17:00 -5°C° 0 mm 5 mps 730 mmHg 77%
    18:00 -5°C° 0 mm 6 mps 730 mmHg 76%
    19:00 -5°C° 0 mm 6 mps 731 mmHg 76%
    20:00 -5°C° 0 mm 6 mps 731 mmHg 76%
    21:00 -6°C° 0 mm 6 mps 732 mmHg 74%
    22:00 -6°C° 0 mm 6 mps 732 mmHg 72%
    23:00 -8°C° 0 mm 6 mps 733 mmHg 70%

    Day after tomorrow, 23 January, Thursday

    Time Temperature Precipitation Wind Pressure Humidity
    00:00 -8°C° 0 mm 6 mps 733 mmHg 69%
    01:00 -8°C° 0 mm 6 mps 734 mmHg 69%
    02:00 -8°C° 0 mm 6 mps 735 mmHg 69%
    03:00 -9°C° 0 mm 6 mps 735 mmHg 65%
    04:00 -9°C° 0 mm 6 mps 736 mmHg 61%
    05:00 -9°C° 0 mm 6 mps 736 mmHg 57%
    06:00 -9°C° 0 mm 6 mps 736 mmHg 56%
    07:00 -9°C° 0 mm 6 mps 737 mmHg 54%
    08:00 -8°C° 0 mm 5 mps 737 mmHg 53%
    09:00 -8°C° 0 mm 6 mps 737 mmHg 54%
    10:00 -8°C° 0 mm 6 mps 738 mmHg 55%
    11:00 -7°C° 0 mm 7 mps 738 mmHg 55%
    12:00 -6°C° 0 mm 6 mps 738 mmHg 54%
    13:00 -6°C° 0 mm 6 mps 739 mmHg 53%
    14:00 -6°C° 0 mm 6 mps 739 mmHg 52%
    15:00 -6°C° 0 mm 5 mps 740 mmHg 56%
    16:00 -7°C° 0 mm 4 mps 740 mmHg 60%
    17:00 -7°C° 0 mm 4 mps 740 mmHg 63%
    18:00 -6°C° 0 mm 3 mps 740 mmHg 66%
    19:00 -6°C° 0 mm 3 mps 741 mmHg 69%
    20:00 -5°C° 0 mm 2 mps 741 mmHg 71%
    21:00 -6°C° 0 mm 3 mps 741 mmHg 73%
    22:00 -6°C° 0 mm 3 mps 740 mmHg 74%
    23:00 -5°C° 0 mm 3 mps 740 mmHg 75%

    24 January, Friday

    Time Temperature Precipitation Wind Pressure Humidity
    00:00 -5°C° 0 mm 3 mps 740 mmHg 80%
    01:00 -5°C° 0 mm 4 mps 739 mmHg 85%
    02:00 -5°C° 0 mm 4 mps 739 mmHg 90%
    03:00 -4°C° 0.3 mm 4 mps 738 mmHg 91%
    04:00 -5°C° 0.3 mm 5 mps 737 mmHg 91%
    05:00 -5°C° 0.3 mm 5 mps 737 mmHg 92%
    06:00 -5°C° 0 mm 5 mps 736 mmHg 92%
    07:00 -3°C° 0 mm 4 mps 736 mmHg 92%
    08:00 -3°C° 0 mm 4 mps 736 mmHg 91%
    09:00 -2°C° 0.1 mm 4 mps 736 mmHg 92%
    10:00 -1°C° 0.1 mm 4 mps 735 mmHg 92%
    11:00 -1°C° 0.1 mm 4 mps 735 mmHg 92%
    12:00 0°C° 0 mm 4 mps 736 mmHg 91%
    13:00 0°C° 0 mm 4 mps 736 mmHg 90%
    14:00 +1°C° 0 mm 4 mps 736 mmHg 88%
    15:00 0°C° 0 mm 4 mps 736 mmHg 90%
    16:00 0°C° 0 mm 4 mps 736 mmHg 92%
    17:00 0°C° 0 mm 4 mps 736 mmHg 93%
    18:00 0°C° 0.1 mm 4 mps 736 mmHg 94%
    19:00 0°C° 0.1 mm 4 mps 736 mmHg 95%
    20:00 +1°C° 0.1 mm 3 mps 736 mmHg 95%
    21:00 0°C° 0.1 mm 4 mps 735 mmHg 95%
    22:00 0°C° 0.1 mm 4 mps 735 mmHg 95%
    23:00 0°C° 0.1 mm 4 mps 735 mmHg 94%

    25 January, Saturday

    Time Temperature Precipitation Wind Pressure Humidity
    00:00 0°C° 0.1 mm 4 mps 734 mmHg 94%
    01:00 0°C° 0.1 mm 4 mps 734 mmHg 93%
    02:00 +1°C° 0.1 mm 4 mps 734 mmHg 93%
    03:00 0°C° 0.1 mm 5 mps 734 mmHg 93%
    04:00 0°C° 0.1 mm 5 mps 734 mmHg 93%
    05:00 0°C° 0.1 mm 5 mps 734 mmHg 93%
    06:00 0°C° 0 mm 5 mps 734 mmHg 94%
    07:00 0°C° 0 mm 4 mps 734 mmHg 95%
    08:00 0°C° 0 mm 4 mps 734 mmHg 96%
    09:00 0°C° 0.2 mm 4 mps 734 mmHg 96%
    10:00 +1°C° 0.2 mm 4 mps 734 mmHg 96%
    11:00 +1°C° 0.2 mm 4 mps 735 mmHg 95%
    12:00 +1°C° 0.1 mm 4 mps 735 mmHg 95%
    13:00 +2°C° 0.1 mm 3 mps 735 mmHg 95%
    14:00 +2°C° 0.1 mm 3 mps 735 mmHg 95%
    15:00 +1°C° 0 mm 3 mps 736 mmHg 95%
    16:00 +1°C° 0 mm 3 mps 736 mmHg 96%
    17:00 +2°C° 0 mm 2 mps 736 mmHg 96%
    18:00 +1°C° 0 mm 2 mps 736 mmHg 96%
    19:00 +1°C° 0 mm 2 mps 736 mmHg 97%
    20:00 +1°C° 0 mm 2 mps 737 mmHg 97%
    21:00 +1°C° 0 mm 2 mps 737 mmHg 97%
    22:00 +1°C° 0 mm 2 mps 737 mmHg 97%
    23:00 +1°C° 0 mm 2 mps 737 mmHg 97%

    26 January, Sunday

    Time Temperature Precipitation Wind Pressure Humidity
    00:00 +1°C° 0 mm 2 mps 737 mmHg 97%
    01:00 +1°C° 0 mm 2 mps 737 mmHg 96%
    02:00 -1°C° 0 mm 2 mps 737 mmHg 96%
    03:00 +1°C° 0 mm 2 mps 737 mmHg 96%
    04:00 +1°C° 0 mm 2 mps 737 mmHg 96%
    05:00 +1°C° 0 mm 2 mps 737 mmHg 96%
    06:00 +1°C° 0 mm 2 mps 737 mmHg 96%
    07:00 +2°C° 0 mm 1 mps 738 mmHg 97%
    08:00 +2°C° 0 mm 1 mps 738 mmHg 97%
    09:00 +1°C° 0 mm 2 mps 738 mmHg 97%
    10:00 +1°C° 0 mm 2 mps 738 mmHg 97%
    11:00 +2°C° 0 mm 2 mps 738 mmHg 96%
    12:00 +1°C° 0.1 mm 3 mps 738 mmHg 96%
    13:00 +1°C° 0.1 mm 3 mps 738 mmHg 96%
    14:00 +1°C° 0.1 mm 3 mps 737 mmHg 96%
    15:00 +1°C° 0.1 mm 3 mps 737 mmHg 97%
    16:00 +1°C° 0.1 mm 3 mps 737 mmHg 97%
    17:00 +1°C° 0.1 mm 3 mps 737 mmHg 97%
    18:00 +1°C° 0 mm 3 mps 737 mmHg 97%
    19:00 +1°C° 0 mm 3 mps 737 mmHg 96%
    20:00 +1°C° 0 mm 3 mps 737 mmHg 96%
    21:00 0°C° 0 mm 3 mps 736 mmHg 94%
    22:00 0°C° 0 mm 3 mps 736 mmHg 92%
    23:00 -1°C° 0 mm 4 mps 736 mmHg 90%
    Show more